Regional Weather Roundup
Issued by NWS

Home | Current Version | Previous Version | Graphics & Text | Print | Product List | Glossary On
Versions: 1 2 3 4 5 6 7 8 9 10 11 12 13 14 15 16 17 18 19 20 21 22 23 24 25 26 27 28
000
ASUS45 KTFX 182310
RWRMT
MONTANA REGIONAL WEATHER ROUNDUP
NATIONAL WEATHER SERVICE GREAT FALLS MT
500 PM MDT MON SEP 18 2017

NOTE: "FAIR" INDICATES FEW OR NO CLOUDS BELOW 12000 FEET WITH NO
SIGNIFICANT WEATHER AND/OR OBSTRUCTIONS TO VISIBILITY.

MTZ001>007-043-190000-
WEST OF THE DIVIDE

CITY           SKY/WX    TMP DP  RH WIND       PRES   REMARKS
KALISPELL      CLOUDY    49  46  90 S14       29.71R
MISSOULA       LGT RAIN  47  29  49 N10       29.77R
BUTTE          LGT RAIN  45  41  86 SE10      29.76F
MULLAN PASS    LGT SNOW  34  31  88 SW10G21   29.74R FOG     WCI  26
ANACONDA         N/A     48  37  66 S22G31    29.73R
DEER LODGE       N/A     52  37  58 S9G20     29.71R
HAMILTON         N/A     48  39  71 E3        29.76R
LIBBY            N/A     54  43  66 SE6       29.68S
PLAINS           N/A     51  39  63 E2        29.74
THOMPSON FALLS   N/A     53  43  69 N1        29.78F
$$

MTZ008-052>055-190000-
SOUTHWEST MONTANA

CITY           SKY/WX    TMP DP  RH WIND       PRES   REMARKS
BOZEMAN        LGT RAIN  52  49  89 NW3       29.72F
DILLON         RAIN      46  42  86 NW16      29.77R FOG
W YELLOWSTONE  CLOUDY    54  32  43 S24G40    29.82F
ENNIS          CLOUDY    50  41  71 S29       29.79F
$$

MTZ009-010-012-014-046-048-049-054-190000-
EAST SLOPES AND CENTRAL MONTANA

CITY           SKY/WX    TMP DP  RH WIND       PRES   REMARKS
CUT BANK       CLOUDY    52  39  61 W31G39    29.60S
GREAT FALLS    CLOUDY    64  34  32 S15       29.59F
MALMSTROM AFB  CLOUDY    64  33  32 S21G28    29.59F
HELENA         CLOUDY    60  38  43 SW13      29.68F
BOWMANS CRNR     N/A     60  31  34 SW21      29.59F
CHOTEAU          N/A     63  34  34 SW12G21   29.61R
FAIRFIELD        N/A     62  34  34 S15       29.59S
POWER            N/A     62  32  32 SW17      29.59F
RAYNESFORD       N/A     64  32  29 S15G23    29.62F
ULM            PTSUNNY   64  33  31 S12G18    29.59F
$$

MTZ011-013-016-021-045-047-050-051-190000-
NORTH CENTRAL MONTANA

CITY           SKY/WX    TMP DP  RH WIND       PRES   REMARKS
HAVRE          PTSUNNY   70  37  29 SW10      29.57F
LEWISTOWN      CLOUDY    63  37  38 SW13      29.66F
N BAR RANCH      N/A     64  36  34 W6G15     29.71F
CHINOOK          N/A     70  37  30 SW7       29.58F
DENTON           N/A     65  34  31 SW17G23   29.59F
GEYSER         PTSUNNY   64  33  32 SW12      29.63F
GRASS RANGE    CLOUDY    64  38  38 S7        29.64S
JUDITH GAP     PTSUNNY   60  37  43 E5        29.68F
WINIFRED       PTSUNNY   66  36  33 S10       29.62F
$$

MTZ017>020-022>027-061-062-190000-
NORTHEAST MONTANA

CITY           SKY/WX    TMP DP  RH WIND       PRES   REMARKS
GLASGOW        MOSUNNY   71  40  32 SE8       29.61F
JORDAN           N/A     73  38  27 SW10      29.62F
SIDNEY         CLOUDY    73  53  49 SE3       29.67F
WOLF POINT     CLOUDY    77  37  23 CALM      29.62F
MALTA          PTSUNNY   75  36  23 S14       29.57F
PLENTYWOOD       N/A     73  39  29 SE14      29.66F
POPLAR           N/A     73  37  27 S6        29.64F
SCOBEY           N/A     72  36  26 SW7       29.66
$$

MTZ028>42-056>058-190000-
SOUTHCENTRAL AND SOUTHEAST MONTANA

CITY           SKY/WX    TMP DP  RH WIND       PRES   REMARKS
BAKER          CLOUDY    72  35  25 S9        29.72F
BILLINGS       CLOUDY    72  38  29 N6        29.63F
LIVINGSTON     CLOUDY    64  34  32 SW28G39   29.67F
MILES CITY     CLOUDY    78  32  18 SE10      29.64F
BIG TIMBER     MOSUNNY   63  34  34 W13G22    29.71S
EKALAKA          N/A     73  36  26 SE3       29.74
HARLOWTON      PTSUNNY   62  38  40 MISG      29.68F
LAUREL           N/A     72  43  35 N9        29.63F
$$

REGIONAL REPORTS...DAKOTAS

CITY           SKY/WX    TMP DP  RH WIND       PRES   REMARKS
WILLISTON      CLOUDY    72  44  36 S7        29.68F
MINOT          SUNNY     71  48  43 E12       29.76S
DICKINSON      MOSUNNY   72  43  35 E7        29.72F
BEACH            N/A     68  41  37 SE7       29.74F
CROSBY         PTSUNNY   72  43  35 SE14      29.69F
TIOGA            N/A     68  45  42 SE16G22   29.74F
WATFORD CITY     N/A     72  41  33 SE7       29.70F
BISMARCK       SUNNY     72  48  42 CALM      29.79S
GRAND FORKS    PTSUNNY   70  59  68 S12       29.80S
FARGO          PTSUNNY   65  57  75 SE13      29.82S
BUFFALO SD       N/A     78  36  21 SE15      29.67F
RAPID CITY     SUNNY     75  37  25 S8        29.76F
$$

REGIONAL REPORTS...WYOMING/IDAHO/WASHINGTON

CITY           SKY/WX    TMP DP  RH WIND       PRES   REMARKS
GILLETTE       CLOUDY    73  33  23 SW5       29.73F
SHERIDAN       SUNNY     77  35  21 SE7       29.68F
BUFFALO WY     CLOUDY    73  30  20 E7        29.74F
CODY           MOSUNNY   74  29  19 W12G20    29.70F
YELLOWSTONE LA   N/A     50  32  50 W8        29.92R
IDAHO FALLS    CLOUDY    65  37  35 NW23G30   29.79R
SALMON         CLOUDY    50  47  89 W3        29.77F
BOISE          RAIN      56  51  84 CALM      29.79R
SPOKANE        PTSUNNY   59  34  39 W18G28    29.68S
$$

REGIONAL REPORTS...ALBERTA

CITY           SKY/WX    TMP DP  RH WIND       PRES   REMARKS
EDMONTON       SUNNY     57  41  54 SE10G17   29.50S
CALGARY        PTSUNNY   61  30  31 SW10G21   29.45F
MEDICINE HAT   CLOUDY    70  39  32 SW15G21   29.51F
$$

REGIONAL REPORTS...SASKATCHEWAN

CITY           SKY/WX    TMP DP  RH WIND       PRES   REMARKS
SWIFT CURRENT  PTSUNNY   68  34  28 SW13      29.57F
REGINA         CLOUDY    73  36  25 SE15      29.62F
SASKATOON      CLOUDY    68  39  34 SE14G21   29.60F
$$




USA.gov is the U.S. government's official web portal to all federal, state and local government web resources and services.